TimeADT,TemperatureF,Dew PointF,Humidity,Sea Level PressureIn,VisibilityMPH,Wind Direction,Wind SpeedMPH,Gust SpeedMPH,PrecipitationIn,Events,Conditions,WindDirDegrees,DateUTC
12:00 AM,71.1,65.1,81,29.98,-9999.0,WNW,4.6,-,N/A,,Unknown,290,2013-07-06 03:00:00
1:00 AM,70.9,66.4,86,29.98,-9999.0,WNW,4.6,-,N/A,,Unknown,300,2013-07-06 04:00:00
2:00 AM,70.5,66.6,87,29.98,-9999.0,NW,3.5,-,N/A,,Unknown,310,2013-07-06 05:00:00
3:00 AM,70,67,87,29.98,,WNW,4.6,,,,,290,2013-07-06 06:00:00
3:00 AM,70.0,66.9,90,29.98,-9999.0,WNW,4.6,-,N/A,,Unknown,290,2013-07-06 06:00:00
4:00 AM,70.2,67.3,91,29.97,-9999.0,NW,3.5,-,N/A,,Unknown,310,2013-07-06 07:00:00
5:00 AM,69.8,67.1,91,29.97,-9999.0,WNW,3.5,-,N/A,,Unknown,300,2013-07-06 08:00:00
6:00 AM,68.7,66.7,93,29.98,-9999.0,WNW,3.5,-,N/A,,Unknown,300,2013-07-06 09:00:00
7:00 AM,69.3,67.6,95,29.97,-9999.0,WNW,2.3,-,N/A,,Unknown,300,2013-07-06 10:00:00
8:00 AM,72.5,67.5,84,29.98,-9999.0,NNW,2.3,-,N/A,,Unknown,340,2013-07-06 11:00:00
9:00 AM,78,70,69,29.96,,NW,3.5,,,,,310,2013-07-06 12:00:00
9:00 AM,78.4,69.8,75,29.96,-9999.0,NW,3.5,-,N/A,,Unknown,310,2013-07-06 12:00:00
10:00 AM,82.2,68.2,62,29.96,-9999.0,NW,4.6,-,N/A,,Unknown,310,2013-07-06 13:00:00
11:00 AM,84.4,66.6,55,29.95,-9999.0,NW,6.9,-,N/A,,Unknown,320,2013-07-06 14:00:00
12:00 PM,86.2,66.0,51,29.94,-9999.0,NW,5.8,-,N/A,,Unknown,320,2013-07-06 15:00:00
1:00 PM,87.4,67.1,51,29.93,-9999.0,WNW,5.8,-,N/A,,Unknown,300,2013-07-06 16:00:00
2:00 PM,87.4,66.9,50,29.91,-9999.0,WNW,6.9,-,N/A,,Unknown,300,2013-07-06 17:00:00
3:00 PM,88,66,39,29.90,,WNW,9.2,,,,,290,2013-07-06 18:00:00
3:00 PM,88.2,66.4,48,29.90,-9999.0,WNW,9.2,17.3,N/A,,Unknown,290,2013-07-06 18:00:00
4:00 PM,87.3,65.1,48,29.88,-9999.0,WNW,9.2,-,N/A,,Unknown,290,2013-07-06 19:00:00
5:00 PM,85.1,66.0,53,29.87,-9999.0,WNW,8.1,-,N/A,,Unknown,290,2013-07-06 20:00:00
6:00 PM,82.2,67.6,61,29.87,-9999.0,WNW,6.9,-,N/A,,Unknown,290,2013-07-06 21:00:00
7:00 PM,81.5,69.8,67,29.85,-9999.0,West,6.9,-,N/A,,Unknown,280,2013-07-06 22:00:00
8:00 PM,79.5,67.8,67,29.85,-9999.0,WNW,6.9,-,N/A,,Unknown,300,2013-07-06 23:00:00
9:00 PM,76,67,68,29.86,,WNW,5.8,,,,,290,2013-07-07 00:00:00
9:00 PM,76.3,67.3,74,29.86,-9999.0,WNW,5.8,-,N/A,,Unknown,290,2013-07-07 00:00:00
10:00 PM,73.9,66.6,78,29.87,-9999.0,WNW,5.8,-,N/A,,Unknown,300,2013-07-07 01:00:00
11:00 PM,71.1,66.0,84,29.88,-9999.0,WNW,3.5,-,N/A,,Unknown,300,2013-07-07 02:00:00